This is the latest recevied weather packets stored in our database for station/object K7BC. If no packets are shown the sender has not sent any weather packets the latest 1 day(s).
| Time | Temp. | Humidity | Pressure | Rain* | Wind** | Luminosity | Snow |
|---|---|---|---|---|---|---|---|
| 1778010664 | 28.33° C | 31% | 1009.2 hPa | 0 mm | 0.89 m/s, 160° | - | - |
| 1778010543 | 28.33° C | 31% | 1009.1 hPa | 0 mm | 0.89 m/s, 233° | - | - |
| 1778010424 | 28.89° C | 30% | 1009 hPa | 0 mm | 0.45 m/s, 191° | - | - |
| 1778010304 | 28.89° C | 30% | 1009.1 hPa | 0 mm | 0.45 m/s, 306° | - | - |
| 1778010184 | 28.89° C | 30% | 1009.2 hPa | 0 mm | 0.89 m/s, 215° | - | - |
| 1778010065 | 28.89° C | 30% | 1009.2 hPa | 0 mm | 0.89 m/s, 198° | - | - |
| 1778009944 | 28.89° C | 31% | 1009.3 hPa | 0 mm | 0.45 m/s, 253° | - | - |
| 1778009824 | 28.89° C | 31% | 1009.3 hPa | 0 mm | 0.45 m/s, 263° | - | - |
| 1778009704 | 28.89° C | 31% | 1009.4 hPa | 0 mm | 0.45 m/s, 255° | - | - |
| 1778009584 | 28.89° C | 31% | 1009.4 hPa | 0 mm | 0.89 m/s, 306° | - | - |
| 1778009463 | 28.89° C | 30% | 1009.5 hPa | 0 mm | 1.34 m/s, 207° | - | - |
| 1778009344 | 28.89° C | 31% | 1009.6 hPa | 0 mm | 0.45 m/s, 221° | - | - |
| 1778009225 | 28.89° C | 31% | 1009.6 hPa | 0 mm | 0.45 m/s, 353° | - | - |
| 1778009104 | 28.89° C | 32% | 1009.5 hPa | 0 mm | 0.45 m/s, 266° | - | - |
| 1778008984 | 28.89° C | 31% | 1009.6 hPa | 0 mm | 0.89 m/s, 185° | - | - |
| 1778008864 | 28.89° C | 32% | 1009.6 hPa | 0 mm | 0.45 m/s, 230° | - | - |
| 1778008745 | 28.89° C | 31% | 1009.6 hPa | 0 mm | 1.34 m/s, 207° | - | - |
| 1778008624 | 28.89° C | 31% | 1009.6 hPa | 0 mm | 0.89 m/s, 229° | - | - |
| 1778008505 | 28.89° C | 31% | 1009.7 hPa | 0 mm | 0.89 m/s, 262° | - | - |
| 1778008384 | 28.89° C | 31% | 1009.7 hPa | 0 mm | 0.45 m/s, 345° | - | - |
| 1778008263 | 28.89° C | 31% | 1009.7 hPa | 0 mm | 0.89 m/s, 180° | - | - |
| 1778008145 | 28.89° C | 32% | 1009.8 hPa | 0 mm | 0.45 m/s, 228° | - | - |
| 1778008023 | 29.44° C | 31% | 1009.9 hPa | 0 mm | 0.45 m/s, 274° | - | - |
| 1778007905 | 29.44° C | 30% | 1009.9 hPa | 0 mm | 0.89 m/s, 220° | - | - |
| 1778007785 | 29.44° C | 30% | 1009.9 hPa | 0 mm | 0.45 m/s, 228° | - | - |
* Rain latest hour (hover to see other rain measurements)
** Current wind speed in m/s (hover to see current wind gust speed)